GW3496 Weather Reports


time (UTC)temp
F
wind
direction
speed
knots
gust
knots
rain 1hr
in
rain 24hr
in
rain mn
in
humidity
%
barometer
mb
20260831220053 86 22 1.7 5.2 0.00 0.00 0.00 69 1016.5
20260831214550 87 56 2.6 5.2 0.00 0.00 0.00 68 1016.4
20260831213048 88 331 1.7 5.2 0.00 0.00 0.00 67 1016.2
20260831211542 88 319 2.6 5.2 0.00 0.00 0.00 67 1016.2
20260831210052 88 5 0.0 4.3 0.00 0.00 0.00 66 1016.3
20260831204550 88 28 3.5 5.2 0.00 0.00 0.00 64 1016.5
20260831203105 89 49 1.7 3.5 0.00 0.00 0.00 64 1016.5
20260831201550 89 352 0.9 4.3 0.00 0.00 0.00 65 1016.4
20260831200136 89 44 1.7 8.7 0.00 0.00 0.00 65 1016.7
20260831194556 89 55 1.7 5.2 0.00 0.00 0.00 66 1016.7
20260831193048 88 24 1.7 4.3 0.00 0.00 0.00 66 1016.8
20260831191556 88 23 1.7 4.3 0.00 0.00 0.00 65 1017.0
20260831190053 89 24 3.5 7.0 0.00 0.00 0.00 64 1016.9
20260831184552 89 34 2.6 6.1 0.00 0.00 0.00 63 1016.9
20260831183048 89 290 0.9 4.3 0.00 0.00 0.00 63 1016.9
20260831181552 89 112 4.3 7.0 0.00 0.00 0.00 62 1017.2
20260831180116 88 272 2.6 6.1 0.00 0.00 0.00 63 1017.5
20260831174551 88 160 4.3 8.7 0.00 0.00 0.00 64 1017.3
20260831173106 87 126 0.9 4.3 0.00 0.00 0.00 66 1017.5
20260831171554 88 85 1.7 7.0 0.00 0.00 0.00 66 1017.9
20260831170111 87 35 2.6 6.1 0.00 0.00 0.00 66 1017.7
20260831164547 87 57 0.0 6.1 0.00 0.00 0.00 67 1018.3
20260831163054 87 65 2.6 6.1 0.00 0.00 0.00 67 1018.4
20260831161554 86 355 0.0 7.0 0.00 0.00 0.00 69 1018.3
20260831160055 86 80 3.5 7.0 0.00 0.00 0.00 69 1018.2
20260831154621 84 37 3.5 7.8 0.00 0.00 0.00 71 1018.0
20260831153058 84 326 3.5 8.7 0.00 0.00 0.00 72 1018.0
20260831151552 84 52 1.7 5.2 0.00 0.00 0.00 72 1017.9
20260831150051 83 35 3.5 7.8 0.00 0.00 0.00 73 1017.9
20260831144535 83 51 3.5 7.8 0.00 0.00 0.00 76 1017.9
20260831143040 82 112 0.9 7.0 0.00 0.00 0.00 76 1017.7
20260831141539 81 55 1.7 5.2 0.00 0.00 0.00 78 1017.8
20260831140038 81 44 1.7 4.3 0.00 0.00 0.00 79 1017.7
20260831134539 79 360 2.6 7.0 0.00 0.00 0.00 81 1017.8
20260831133034 78 103 0.9 3.5 0.00 0.00 0.00 82 1017.7
20260831131535 77 316 0.0 5.2 0.00 0.00 0.00 86 1017.6
20260831130033 76 324 1.7 4.3 0.00 0.00 0.00 89 1017.8
20260831124538 75 340 0.0 2.6 0.00 0.00 0.00 91 1018.0
20260831123037 74 297 0.0 3.5 0.00 0.00 0.00 92 1017.8
20260831121537 73 5 0.9 7.0 0.00 0.00 0.00 93 1017.4
20260831120037 73 313 0.9 4.3 0.00 0.00 0.00 93 1017.3
20260831114538 73 308 0.9 3.5 0.00 0.00 0.00 93 1017.4
20260831113047 72 286 1.7 3.5 0.00 0.00 0.00 93 1017.2
20260831111534 72 299 0.0 2.6 0.00 0.00 0.00 93 1017.0
20260831110036 72 290 1.7 3.5 0.00 0.00 0.00 93 1016.7
20260831104538 72 18 0.0 0.0 0.00 0.00 0.00 92 1016.4
20260831103034 72 350 0.0 0.0 0.00 0.00 0.00 92 1016.3
20260831101534 72 83 0.0 0.0 0.00 0.00 0.00 92 1016.2
20260831100037 72 83 0.0 0.0 0.00 0.00 0.00 92 1016.3
20260831094536 73 83 0.0 0.0 0.00 0.00 0.00 92 1016.3
20260831093036 73 83 0.0 0.0 0.00 0.00 0.00 92 1016.3
20260831091539 73 83 0.0 0.0 0.00 0.00 0.00 92 1016.2
20260831090039 73 83 0.0 0.0 0.00 0.00 0.00 92 1016.2
20260831084545 73 83 0.0 0.0 0.00 0.00 0.00 92 1016.3
20260831083039 73 83 0.0 0.0 0.00 0.00 0.00 92 1016.2
20260831081543 73 83 0.0 0.0 0.00 0.00 0.00 92 1016.2
20260831080040 73 83 0.0 0.0 0.00 0.00 0.00 92 1016.1
20260831074539 73 83 0.0 0.0 0.00 0.00 0.00 91 1016.2
20260831073042 74 83 0.0 0.0 0.00 0.00 0.00 91 1016.1
20260831071539 74 83 0.0 0.0 0.00 0.00 0.00 91 1016.1
20260831070054 74 83 0.0 0.0 0.00 0.00 0.00 91 1016.1
20260831064544 74 83 0.0 0.0 0.00 0.00 0.00 91 1016.2
20260831063047 74 83 0.0 1.7 0.00 0.00 0.00 91 1016.2
20260831061543 74 84 0.0 0.0 0.00 0.00 0.00 91 1016.2
20260831060047 74 5 0.0 2.6 0.00 0.00 0.00 91 1016.3
20260831054546 74 298 0.0 2.6 0.00 0.00 0.00 90 1016.3
20260831053058 75 70 0.0 0.0 0.00 0.00 0.00 90 1016.4
20260831051548 75 35 0.0 0.0 0.00 0.00 0.00 89 1016.6
20260831050047 75 35 0.0 3.5 0.00 0.00 0.00 88 1016.7
20260831044540 76 55 0.0 0.0 0.00 0.00 0.00 86 1016.4
20260831043052 76 243 0.0 3.5 0.00 0.00 0.00 86 1016.2
20260831041555 76 252 2.6 5.2 0.00 0.00 0.00 87 1016.4
20260831040055 76 205 3.5 7.0 0.00 0.00 0.00 88 1016.4
20260831034553 76 198 5.2 7.0 0.00 0.00 0.00 87 1016.5
20260831033107 76 246 0.0 2.6 0.00 0.00 0.00 86 1017.0
20260831031548 76 261 3.5 6.1 0.00 0.00 0.00 86 1017.2
20260831030056 76 311 0.0 0.0 0.00 0.00 0.00 86 1017.2
20260831024552 76 313 0.0 7.0 0.00 0.00 0.00 86 1017.5
20260831023052 76 277 5.2 11.3 0.00 0.00 0.00 87 1017.6
20260831021545 75 277 0.0 0.0 0.00 0.00 0.00 87 1017.4
20260831020108 75 301 0.0 0.0 0.00 0.00 0.00 88 1017.6
20260831014553 75 40 0.0 0.0 0.00 0.00 0.00 88 1017.4
20260831013055 75 58 0.0 0.0 0.00 0.00 0.00 87 1017.3
20260831011547 76 29 0.0 0.0 0.00 0.00 0.00 86 1017.2
20260831010053 77 19 0.0 0.0 0.00 0.00 0.00 84 1017.3
20260831004557 78 21 0.0 0.0 0.00 0.00 0.00 79 1017.2
20260831003053 79 65 0.0 0.0 0.00 0.00 0.00 76 1017.0
20260831001549 79 174 1.7 5.2 0.00 0.00 0.00 75 1016.7
20260831000055 80 192 2.6 5.2 0.00 0.00 0.00 76 1016.5
20260830234551 79 134 0.0 0.0 0.00 0.00 0.00 74 1016.6
20260830233051 79 294 0.0 12.2 0.00 0.00 0.00 73 1017.0
20260830231554 81 268 7.8 14.8 0.00 0.00 0.00 69 1017.3
20260830230050 83 293 11.3 18.2 0.00 0.00 0.00 66 1017.4
20260830224543 86 232 3.5 7.0 0.00 0.00 0.00 66 1017.2
20260830223055 86 202 4.3 8.7 0.00 0.00 0.00 65 1016.8
20260830221550 86 203 4.3 11.3 0.00 0.00 0.00 65 1016.7